When you browse on this site, cookies collect data to enhance your experience and personalize the content and advertising you see.
Visit our Privacy Policy to learn more. By continuing to use the site, you agree to this use of cookies and data.
  • In Latvia
  • List of Countries
  • For 7 days
  • Water Temperature
  • Satellite Maps
  • Weather Map
  • Weather Widgets
  • user-avatar
    Login

    Hourly Weather Konstantyna

    Today, 20 November, Tuesday

    Time Temperature Precipitation Wind Pressure Humidity
    00:00 +10°C° 0 mm 5 mps 699 mmHg 69%
    01:00 +10°C° 0 mm 5 mps 699 mmHg 70%
    02:00 +10°C° 0 mm 5 mps 699 mmHg 71%
    03:00 +10°C° 0 mm 4 mps 699 mmHg 71%
    04:00 +10°C° 0.1 mm 4 mps 699 mmHg 73%
    05:00 +10°C° 0.1 mm 4 mps 700 mmHg 74%
    06:00 +10°C° 0.1 mm 4 mps 700 mmHg 75%
    07:00 +11°C° 0.2 mm 4 mps 701 mmHg 73%
    08:00 +12°C° 0.2 mm 4 mps 702 mmHg 72%
    09:00 +12°C° 0.2 mm 5 mps 703 mmHg 70%
    10:00 +13°C° 0 mm 4 mps 703 mmHg 66%
    11:00 +14°C° 0 mm 4 mps 704 mmHg 62%
    12:00 +15°C° 0 mm 4 mps 704 mmHg 57%
    13:00 +15°C° 0 mm 4 mps 704 mmHg 56%
    14:00 +15°C° 0 mm 4 mps 704 mmHg 55%
    15:00 +17°C° 0 mm 4 mps 705 mmHg 54%
    16:00 +14°C° 0 mm 3 mps 705 mmHg 58%
    17:00 +13°C° 0 mm 3 mps 705 mmHg 62%
    18:00 +13°C° 0 mm 2 mps 705 mmHg 67%
    19:00 +12°C° 0 mm 3 mps 706 mmHg 65%
    20:00 +12°C° 0 mm 3 mps 706 mmHg 64%
    21:00 +11°C° 0 mm 3 mps 707 mmHg 63%
    22:00 +11°C° 0 mm 3 mps 707 mmHg 61%
    23:00 +11°C° 0 mm 3 mps 707 mmHg 58%

    Tomorrow, 21 November, Wednesday

    Time Temperature Precipitation Wind Pressure Humidity
    00:00 +11°C° 0 mm 3 mps 707 mmHg 56%
    01:00 +11°C° 0 mm 3 mps 708 mmHg 56%
    02:00 +11°C° 0 mm 3 mps 708 mmHg 57%
    03:00 +10°C° 0 mm 3 mps 708 mmHg 57%
    04:00 +10°C° 0 mm 3 mps 708 mmHg 59%
    05:00 +10°C° 0 mm 3 mps 708 mmHg 61%
    06:00 +10°C° 0 mm 3 mps 709 mmHg 63%
    07:00 +11°C° 0 mm 3 mps 709 mmHg 58%
    08:00 +13°C° 0 mm 3 mps 710 mmHg 54%
    09:00 +16°C° 0 mm 3 mps 711 mmHg 50%
    10:00 +17°C° 0 mm 3 mps 711 mmHg 47%
    11:00 +18°C° 0 mm 3 mps 711 mmHg 43%
    12:00 +19°C° 0 mm 4 mps 711 mmHg 40%
    13:00 +19°C° 0 mm 3 mps 711 mmHg 40%
    14:00 +19°C° 0 mm 3 mps 711 mmHg 41%
    15:00 +19°C° 0 mm 2 mps 711 mmHg 42%
    16:00 +17°C° 0 mm 2 mps 711 mmHg 46%
    17:00 +16°C° 0 mm 2 mps 712 mmHg 51%
    18:00 +14°C° 0 mm 1 mps 712 mmHg 56%
    19:00 +14°C° 0 mm 1 mps 712 mmHg 55%
    20:00 +13°C° 0 mm 2 mps 712 mmHg 55%
    21:00 +13°C° 0 mm 2 mps 712 mmHg 54%
    22:00 +13°C° 0 mm 2 mps 712 mmHg 53%
    23:00 +13°C° 0 mm 2 mps 712 mmHg 51%

    Day after tomorrow, 22 November, Thursday

    Time Temperature Precipitation Wind Pressure Humidity
    00:00 +13°C° 0 mm 2 mps 712 mmHg 50%
    01:00 +13°C° 0 mm 2 mps 712 mmHg 49%
    02:00 +13°C° 0 mm 2 mps 712 mmHg 49%
    03:00 +11°C° 0 mm 3 mps 712 mmHg 48%
    04:00 +11°C° 0 mm 3 mps 712 mmHg 49%
    05:00 +11°C° 0 mm 3 mps 712 mmHg 50%
    06:00 +11°C° 0 mm 3 mps 712 mmHg 51%
    07:00 +14°C° 0 mm 2 mps 712 mmHg 49%
    08:00 +15°C° 0 mm 2 mps 712 mmHg 47%
    09:00 +17°C° 0 mm 2 mps 713 mmHg 44%
    10:00 +18°C° 0 mm 3 mps 713 mmHg 40%
    11:00 +19°C° 0 mm 3 mps 713 mmHg 35%
    12:00 +21°C° 0 mm 3 mps 713 mmHg 31%
    13:00 +21°C° 0 mm 3 mps 713 mmHg 31%
    14:00 +21°C° 0 mm 2 mps 712 mmHg 31%
    15:00 +21°C° 0 mm 2 mps 712 mmHg 31%
    16:00 +19°C° 0 mm 2 mps 712 mmHg 35%
    17:00 +17°C° 0 mm 2 mps 712 mmHg 38%
    18:00 +16°C° 0 mm 2 mps 712 mmHg 42%
    19:00 +15°C° 0 mm 2 mps 712 mmHg 43%
    20:00 +15°C° 0 mm 2 mps 712 mmHg 44%
    21:00 +14°C° 0 mm 2 mps 712 mmHg 45%
    22:00 +14°C° 0 mm 2 mps 712 mmHg 46%
    23:00 +13°C° 0 mm 2 mps 712 mmHg 47%

    23 November, Friday

    Time Temperature Precipitation Wind Pressure Humidity
    00:00 +13°C° 0 mm 2 mps 712 mmHg 48%
    01:00 +13°C° 0 mm 2 mps 712 mmHg 49%
    02:00 +12°C° 0 mm 2 mps 712 mmHg 49%
    03:00 +12°C° 0 mm 2 mps 711 mmHg 49%
    04:00 +12°C° 0 mm 2 mps 711 mmHg 49%
    05:00 +12°C° 0 mm 2 mps 711 mmHg 49%
    06:00 +10°C° 0 mm 2 mps 711 mmHg 48%
    07:00 +12°C° 0 mm 3 mps 712 mmHg 44%
    08:00 +14°C° 0 mm 3 mps 712 mmHg 40%
    09:00 +17°C° 0 mm 3 mps 713 mmHg 36%
    10:00 +18°C° 0 mm 3 mps 712 mmHg 33%
    11:00 +19°C° 0 mm 4 mps 712 mmHg 30%
    12:00 +21°C° 0 mm 4 mps 712 mmHg 27%
    13:00 +21°C° 0 mm 4 mps 712 mmHg 29%
    14:00 +20°C° 0 mm 4 mps 711 mmHg 30%
    15:00 +20°C° 0 mm 4 mps 711 mmHg 32%
    16:00 +19°C° 0 mm 3 mps 711 mmHg 35%
    17:00 +17°C° 0 mm 3 mps 711 mmHg 38%
    18:00 +16°C° 0 mm 3 mps 710 mmHg 41%
    19:00 +14°C° 0 mm 3 mps 711 mmHg 43%
    20:00 +14°C° 0 mm 3 mps 711 mmHg 45%
    21:00 +13°C° 0 mm 3 mps 711 mmHg 47%
    22:00 +13°C° 0 mm 3 mps 711 mmHg 48%
    23:00 +13°C° 0 mm 3 mps 711 mmHg 49%

    24 November, Saturday

    Time Temperature Precipitation Wind Pressure Humidity
    00:00 +12°C° 0 mm 3 mps 711 mmHg 51%
    01:00 +12°C° 0 mm 3 mps 711 mmHg 52%
    02:00 +12°C° 0 mm 3 mps 711 mmHg 53%
    03:00 +13°C° 0 mm 2 mps 711 mmHg 55%
    04:00 +13°C° 0 mm 2 mps 711 mmHg 55%
    05:00 +13°C° 0 mm 2 mps 711 mmHg 56%
    06:00 +13°C° 0 mm 1 mps 711 mmHg 57%
    07:00 +14°C° 0 mm 1 mps 711 mmHg 54%
    08:00 +15°C° 0 mm 1 mps 712 mmHg 51%
    09:00 +18°C° 0 mm 1 mps 713 mmHg 48%
    10:00 +19°C° 0 mm 1 mps 712 mmHg 45%
    11:00 +20°C° 0 mm 1 mps 712 mmHg 42%
    12:00 +21°C° 0 mm 1 mps 712 mmHg 39%
    13:00 +21°C° 0 mm 1 mps 712 mmHg 42%
    14:00 +20°C° 0 mm 1 mps 711 mmHg 45%
    15:00 +20°C° 0 mm 1 mps 711 mmHg 48%
    16:00 +19°C° 0.1 mm 1 mps 711 mmHg 53%
    17:00 +18°C° 0.1 mm 1 mps 711 mmHg 58%
    18:00 +16°C° 0.1 mm 1 mps 711 mmHg 63%
    19:00 +16°C° 0 mm 1 mps 711 mmHg 64%
    20:00 +15°C° 0 mm 1 mps 711 mmHg 66%
    21:00 +14°C° 0 mm 0 mps 711 mmHg 68%
    22:00 +15°C° 0 mm 1 mps 711 mmHg 69%
    23:00 +15°C° 0 mm 1 mps 710 mmHg 69%

    25 November, Sunday

    Time Temperature Precipitation Wind Pressure Humidity
    00:00 +14°C° 0 mm 1 mps 710 mmHg 69%
    01:00 +14°C° 0.1 mm 1 mps 710 mmHg 70%
    02:00 +14°C° 0.1 mm 1 mps 709 mmHg 71%
    03:00 +14°C° 0.1 mm 1 mps 709 mmHg 71%
    04:00 +14°C° 0 mm 1 mps 709 mmHg 72%
    05:00 +13°C° 0 mm 1 mps 708 mmHg 73%
    06:00 +12°C° 0 mm 0 mps 708 mmHg 74%
    07:00 +14°C° 0.1 mm 1 mps 708 mmHg 71%
    08:00 +15°C° 0.1 mm 1 mps 708 mmHg 67%
    09:00 +16°C° 0.1 mm 1 mps 708 mmHg 63%
    10:00 +16°C° 0.8 mm 1 mps 708 mmHg 66%
    11:00 +15°C° 0.8 mm 2 mps 708 mmHg 69%
    12:00 +15°C° 0.8 mm 2 mps 707 mmHg 72%
    13:00 +15°C° 1 mm 2 mps 707 mmHg 75%
    14:00 +14°C° 1 mm 2 mps 707 mmHg 79%
    15:00 +13°C° 1 mm 2 mps 707 mmHg 83%
    16:00 +13°C° 0.6 mm 2 mps 707 mmHg 85%
    17:00 +13°C° 0.6 mm 2 mps 707 mmHg 87%
    18:00 +13°C° 0.6 mm 1 mps 707 mmHg 89%
    19:00 +13°C° 0.5 mm 1 mps 707 mmHg 89%
    20:00 +13°C° 0.5 mm 1 mps 707 mmHg 90%
    21:00 +13°C° 0.5 mm 1 mps 708 mmHg 90%
    22:00 +13°C° 0.2 mm 2 mps 707 mmHg 91%
    23:00 +12°C° 0.2 mm 2 mps 707 mmHg 91%
    Show more